This is the latest recevied weather packets stored in our database for station/object JG6YPS-13. If no packets are shown the sender has not sent any weather packets the latest 10 day(s).
| Time | Temp. | Humidity | Pressure | Rain* | Wind** | Luminosity | Snow |
|---|---|---|---|---|---|---|---|
| 1777651855 | 11.67° C | 85% | 1014.2 hPa | 0 mm | - | - | - |
| 1777651256 | 11.11° C | 86% | 1014.3 hPa | 0 mm | - | - | - |
| 1777650657 | 11.11° C | 86% | 1014.3 hPa | 0 mm | - | - | - |
| 1777650057 | 11.11° C | 85% | 1014.3 hPa | 0 mm | - | - | - |
| 1777649458 | 11.11° C | 85% | 1014.3 hPa | 0 mm | - | - | - |
| 1777648859 | 11.11° C | 85% | 1014.3 hPa | 0 mm | - | - | - |
| 1777648260 | 11.67° C | 83% | 1014.4 hPa | 0 mm | - | - | - |
| 1777647660 | 11.67° C | 83% | 1014.5 hPa | 0 mm | - | - | - |
| 1777647061 | 12.22° C | 82% | 1014.2 hPa | 0 mm | - | - | - |
| 1777646462 | 12.22° C | 81% | 1014.1 hPa | 0 mm | - | - | - |
| 1777645863 | 12.22° C | 82% | 1014.1 hPa | 0 mm | - | - | - |
| 1777645263 | 12.78° C | 81% | 1014.1 hPa | 0 mm | - | - | - |
| 1777644664 | 12.78° C | 80% | 1013.9 hPa | 0 mm | - | - | - |
| 1777644065 | 12.22° C | 82% | 1013.8 hPa | 0 mm | - | - | - |
| 1777643465 | 12.78° C | 80% | 1013.5 hPa | 0 mm | - | - | - |
| 1777642866 | 12.78° C | 81% | 1013.6 hPa | 0 mm | - | - | - |
| 1777642267 | 12.78° C | 80% | 1013.5 hPa | 0 mm | - | - | - |
| 1777641668 | 12.78° C | 79% | 1013.4 hPa | 0 mm | - | - | - |
| 1777641068 | 13.33° C | 78% | 1013.3 hPa | 0 mm | - | - | - |
| 1777640469 | 13.33° C | 77% | 1013.3 hPa | 0 mm | - | - | - |
| 1777639870 | 13.89° C | 77% | 1013.4 hPa | 0 mm | - | - | - |
| 1777639270 | 13.89° C | 76% | 1013.3 hPa | 0 mm | - | - | - |
| 1777638671 | 14.44° C | 75% | 1013.1 hPa | 0 mm | - | - | - |
| 1777638072 | 14.44° C | 74% | 1012.9 hPa | 0 mm | - | - | - |
| 1777637472 | 14.44° C | 73% | 1013 hPa | 0 mm | - | - | - |
* Rain latest hour (hover to see other rain measurements)
** Current wind speed in m/s (hover to see current wind gust speed)